This is the latest recevied weather packets stored in our database for station/object WA0LM. If no packets are shown the sender has not sent any weather packets the latest 10 day(s).
| Time | Temp. | Humidity | Pressure | Rain* | Wind** | Luminosity | Snow |
|---|---|---|---|---|---|---|---|
| 1777728768 | 6.67° C | 61% | 1016.1 hPa | 0 mm | - | 184 W/m² | - |
| 1777728465 | 6.67° C | 65% | 1016 hPa | 0 mm | - | 193 W/m² | - |
| 1777728162 | 6.11° C | 64% | 1016.1 hPa | 0 mm | - | 208 W/m² | - |
| 1777727859 | 6.11° C | 64% | 1016.3 hPa | 0 mm | - | 211 W/m² | - |
| 1777727557 | 5.56° C | 65% | 1016.3 hPa | 0 mm | - | 144 W/m² | - |
| 1777727254 | 5° C | 66% | 1016.3 hPa | 0 mm | - | 112 W/m² | - |
| 1777726951 | 5° C | 70% | 1016.5 hPa | 0 mm | - | 77 W/m² | - |
| 1777726647 | 4.44° C | 66% | 1016.4 hPa | 0 mm | - | 71 W/m² | - |
| 1777726345 | 4.44° C | 68% | 1016.4 hPa | 0 mm | - | 64 W/m² | - |
| 1777726042 | 3.89° C | 67% | 1016.5 hPa | 0 mm | - | 67 W/m² | - |
| 1777725738 | 3.89° C | 67% | 1016.5 hPa | 0 mm | - | 61 W/m² | - |
| 1777725437 | 3.89° C | 70% | 1016.5 hPa | 0 mm | - | 68 W/m² | - |
| 1777725134 | 3.33° C | 70% | 1016.5 hPa | 0 mm | - | 64 W/m² | - |
| 1777724830 | 2.78° C | 73% | 1016.4 hPa | 0 mm | - | 56 W/m² | - |
| 1777724526 | 2.22° C | 78% | 1016.6 hPa | 0 mm | - | 52 W/m² | - |
| 1777724225 | 1.67° C | 81% | 1016.6 hPa | 0 mm | - | 50 W/m² | - |
| 1777723923 | 1.11° C | 84% | 1016.5 hPa | 0 mm | - | 36 W/m² | - |
| 1777723619 | 0.56° C | 85% | 1016.5 hPa | 0 mm | - | 35 W/m² | - |
| 1777723316 | 0.56° C | 85% | 1016.5 hPa | 0 mm | - | 31 W/m² | - |
| 1777723013 | 0.56° C | 85% | 1016.6 hPa | 0 mm | - | 26 W/m² | - |
| 1777722709 | 0° C | 85% | 1016.5 hPa | 0 mm | - | 23 W/m² | - |
| 1777722406 | 0° C | 85% | 1016.5 hPa | 0 mm | - | 21 W/m² | - |
| 1777722103 | 0° C | 85% | 1016.4 hPa | 0 mm | - | 20 W/m² | - |
| 1777721800 | 0° C | 86% | 1016.5 hPa | 0 mm | - | 18 W/m² | - |
| 1777721498 | -0.56° C | 86% | 1016.6 hPa | 0 mm | - | 15 W/m² | - |
* Rain latest hour (hover to see other rain measurements)
** Current wind speed in m/s (hover to see current wind gust speed)